Date String (YYYY-MM-DD hh:mm:ss) UTC,Instrument flags,Ambient pressure (hPa),Sample flow (lpm),Bypass flow (lpm),Sample temperature (°C),Ambient temperature (°C),ASC tube jacket temperature (°C),LED temperature (°C),Box temperature (°C),Sample RH (%),Span deviation,Mass concentration (μg/m³),Mass concentration (μg/m³),Mass concentration (μg/m³)
DateTimeUTC,F1_M11,P_M11,Q1_M11,Q2_M11,T1_M11,T2_M11,T3_M11,T4_M11,T5_M11,U1_M11,ZSPAN_M11,X0_M11,X2_M11,X1_M11
2022-12-05 11:00:00,,0815.9,5.00,0.00,23.3,21.8,00.0,32.3,25.1,13.3,0000.0,0002.08,0001.68,0001.49
2022-12-05 11:01:00,,0815.9,5.01,0.00,23.3,21.8,00.0,32.3,25.1,13.1,0000.0,0002.11,0001.71,0001.53
2022-12-05 11:02:00,,0815.9,5.00,0.00,23.3,21.8,00.0,32.3,25.0,13.1,0000.0,0002.11,0001.75,0001.58
2022-12-05 11:03:00,,0816.0,4.98,0.00,23.3,21.7,00.0,32.3,25.0,13.2,0000.0,0002.16,0001.77,0001.61
2022-12-05 11:04:00,,0815.9,5.01,0.00,23.2,21.6,00.0,32.3,25.0,13.4,0000.0,0002.48,0001.80,0001.62
2022-12-05 11:05:00,,0815.9,5.00,0.00,23.2,21.5,00.0,32.3,24.9,13.4,0000.0,0003.41,0001.81,0001.63
2022-12-05 11:06:00,,0815.8,4.99,0.00,23.2,21.4,00.0,32.2,24.9,13.5,0000.0,0003.44,0001.83,0001.64
2022-12-05 11:07:00,,0815.8,4.99,0.00,23.1,21.4,00.0,32.2,24.9,13.7,0000.0,0003.43,0001.83,0001.64
2022-12-05 11:08:00,,0815.8,5.01,0.00,23.1,21.5,00.0,32.2,24.9,13.8,0000.0,0003.46,0001.83,0001.63
2022-12-05 11:09:00,,0815.8,5.01,0.00,23.1,21.6,00.0,32.2,24.9,13.9,0000.0,0003.45,0001.80,0001.63
2022-12-05 11:10:00,,0815.8,5.00,0.00,23.1,21.6,00.0,32.2,24.9,13.8,0000.0,0003.45,0001.78,0001.61
2022-12-05 11:11:00,,0815.8,4.99,0.00,23.1,21.7,00.0,32.2,24.9,13.6,0000.0,0003.47,0001.78,0001.61
2022-12-05 11:12:00,,0815.7,4.99,0.00,23.1,21.7,00.0,32.1,24.9,13.7,0000.0,0003.49,0001.75,0001.57
2022-12-05 11:13:00,,0815.9,5.00,0.00,23.1,21.6,00.0,32.1,24.9,13.7,0000.0,0003.44,0001.71,0001.54
2022-12-05 11:14:00,,0815.8,5.01,0.00,23.1,21.7,00.0,32.1,24.9,13.6,0000.0,0003.36,0001.67,0001.51
2022-12-05 11:15:00,,0815.8,5.00,0.00,23.1,21.6,00.0,32.1,24.9,13.7,0000.0,0003.34,0001.65,0001.50
2022-12-05 11:16:00,,0815.7,5.01,0.00,23.1,21.6,00.0,32.1,24.8,13.7,0000.0,0002.20,0001.64,0001.49
2022-12-05 11:17:00,,0815.7,4.98,0.00,23.1,21.6,00.0,32.1,24.8,13.8,0000.0,0002.17,0001.64,0001.47
2022-12-05 11:18:00,,0815.8,5.01,0.00,23.1,21.6,00.0,32.1,24.8,13.8,0000.0,0002.22,0001.66,0001.48
2022-12-05 11:19:00,,0815.9,5.01,0.00,23.1,21.7,00.0,32.1,24.9,13.7,0000.0,0002.18,0001.64,0001.47
2022-12-05 11:20:00,,0815.8,5.00,0.00,23.1,21.6,00.0,32.1,24.9,13.8,0000.0,0002.09,0001.61,0001.47
2022-12-05 11:21:00,,0815.7,5.00,0.00,23.1,21.6,00.0,32.1,24.9,13.7,0000.0,0002.02,0001.58,0001.46
2022-12-05 11:22:00,,0815.7,5.00,0.00,23.1,21.6,00.0,32.1,24.9,13.6,0000.0,0001.97,0001.56,0001.45
2022-12-05 11:23:00,,0815.7,4.99,0.00,23.1,21.6,00.0,32.1,24.9,13.6,0000.0,0001.89,0001.54,0001.44
2022-12-05 11:24:00,,0816.1,5.00,0.00,23.1,21.6,00.0,32.0,24.8,13.6,0000.0,0001.86,0001.53,0001.43
2022-12-05 11:25:00,,0816.0,4.99,0.00,23.1,21.6,00.0,32.0,24.9,13.8,0000.0,0001.85,0001.53,0001.43
2022-12-05 11:26:00,,0816.1,5.01,0.00,23.1,21.7,00.0,32.0,24.9,13.7,0000.0,0001.82,0001.52,0001.42
2022-12-05 11:27:00,,0816.1,5.01,0.00,23.1,21.7,00.0,32.0,24.9,13.7,0000.0,0001.90,0001.50,0001.42
2022-12-05 11:28:00,,0815.7,4.98,0.00,23.1,21.6,00.0,32.0,24.8,13.6,0000.0,0001.94,0001.51,0001.42
2022-12-05 11:29:00,,0815.4,5.00,0.00,23.1,21.6,00.0,32.0,24.8,13.6,0000.0,0001.96,0001.51,0001.41
2022-12-05 11:30:00,,0815.6,5.00,0.00,23.1,21.6,00.0,32.0,24.8,13.6,0000.0,0002.02,0001.53,0001.39
2022-12-05 11:31:00,,0815.5,5.02,0.00,23.1,21.6,00.0,32.0,24.8,13.7,0000.0,0002.06,0001.53,0001.38
2022-12-05 11:32:00,,0815.4,4.99,0.00,23.1,21.6,00.0,32.0,24.8,13.6,0000.0,0002.09,0001.53,0001.38
2022-12-05 11:33:00,,0815.3,4.99,0.00,23.0,21.6,00.0,32.0,24.8,13.5,0000.0,0002.07,0001.52,0001.36
2022-12-05 11:34:00,,0815.4,5.01,0.00,23.0,21.6,00.0,32.0,24.8,13.3,0000.0,0002.05,0001.51,0001.35
2022-12-05 11:35:00,,0815.4,5.01,0.00,23.0,21.6,00.0,32.0,24.8,13.4,0000.0,0002.06,0001.50,0001.34
2022-12-05 11:36:00,,0815.3,5.00,0.00,23.0,21.6,00.0,32.0,24.8,13.5,0000.0,0002.10,0001.52,0001.33
2022-12-05 11:37:00,,0815.3,4.98,0.00,23.0,21.5,00.0,32.0,24.8,13.5,0000.0,0002.18,0001.54,0001.32
2022-12-05 11:38:00,,0815.4,5.00,0.00,23.0,21.5,00.0,32.0,24.8,13.5,0000.0,0002.10,0001.55,0001.31
2022-12-05 11:39:00,,0815.3,5.00,0.00,23.0,21.5,00.0,32.0,24.8,13.4,0000.0,0002.11,0001.55,0001.30
2022-12-05 11:40:00,,0815.3,5.00,0.00,23.0,21.5,00.0,32.0,24.7,13.5,0000.0,0002.01,0001.51,0001.29
2022-12-05 11:41:00,,0815.3,5.00,0.00,23.0,21.5,00.0,32.0,24.7,13.6,0000.0,0001.94,0001.48,0001.29
2022-12-05 11:42:00,,0815.3,4.99,0.00,23.0,21.5,00.0,32.0,24.7,13.7,0000.0,0001.89,0001.46,0001.28
2022-12-05 11:43:00,,0815.3,5.00,0.00,23.0,21.5,00.0,32.0,24.7,13.5,0000.0,0001.86,0001.45,0001.28
2022-12-05 11:44:00,,0815.1,5.02,0.00,22.9,21.4,00.0,31.9,24.7,13.5,0000.0,0001.91,0001.48,0001.28
2022-12-05 11:45:00,,0815.1,5.00,0.00,22.9,21.4,00.0,31.9,24.7,13.4,0000.0,0001.92,0001.48,0001.27
2022-12-05 11:46:00,,0815.2,4.99,0.00,22.9,21.4,00.0,31.9,24.6,13.4,0000.0,0001.95,0001.49,0001.27
2022-12-05 11:47:00,,0815.2,5.00,0.00,22.9,21.4,00.0,31.9,24.6,13.4,0000.0,0001.93,0001.47,0001.25
2022-12-05 11:48:00,,0815.2,5.00,0.00,22.9,21.4,00.0,31.9,24.7,13.5,0000.0,0001.90,0001.45,0001.24
2022-12-05 11:49:00,,0815.3,5.01,0.00,22.9,21.4,00.0,31.9,24.6,13.6,0000.0,0001.86,0001.43,0001.23
2022-12-05 11:50:00,,0815.2,5.00,0.00,22.9,21.4,00.0,31.9,24.6,13.7,0000.0,0001.81,0001.41,0001.23
2022-12-05 11:51:00,,0815.4,4.99,0.00,22.9,21.4,00.0,31.9,24.6,13.9,0000.0,0001.92,0001.44,0001.24
2022-12-05 11:52:00,,0815.2,4.99,0.00,22.9,21.4,00.0,31.9,24.6,14.1,0000.0,0001.94,0001.45,0001.24
2022-12-05 11:53:00,,0815.2,4.99,0.00,22.9,21.4,00.0,31.9,24.6,14.2,0000.0,0001.99,0001.47,0001.24
2022-12-05 11:54:00,,0815.3,5.02,0.00,22.9,21.4,00.0,31.9,24.6,14.3,0000.0,0002.00,0001.47,0001.24
2022-12-05 11:55:00,,0815.2,4.99,0.00,22.9,21.4,00.0,31.9,24.7,14.4,0000.0,0001.99,0001.46,0001.24
2022-12-05 11:56:00,,0815.2,4.99,0.00,22.9,21.4,00.0,31.8,24.6,14.6,0000.0,0002.06,0001.51,0001.27
2022-12-05 11:57:00,,0815.1,5.02,0.00,22.8,21.4,00.0,31.8,24.5,14.6,0000.0,0002.07,0001.52,0001.28
2022-12-05 11:58:00,,0815.1,5.00,0.00,22.8,21.3,00.0,31.8,24.5,14.4,0000.0,0002.07,0001.53,0001.30
2022-12-05 11:59:00,,0815.3,4.99,0.00,22.8,21.3,00.0,31.8,24.6,14.6,0000.0,0002.03,0001.53,0001.32
